Zurück zum Katalog

DELTA 1 DEB

AktivLEO
NORAD 10630·DEBRIS·🇺🇸 United States

Gestartet Jul 14, 1977 von Cape Canaveral Space Force Station

Loading…

Nächste Überflüge (nächste 24 Stunden)

TLE

AktuellSource: Space-Track

Epoche: Sep 14, 2026, 21:16 UTC

1 10630U 77065EZ  26257.88622725  .00000379  00000-0  36012-3 0  9991
2 10630  29.2353 119.0729 0779040 285.3647  66.2191 12.81166752518971

Verfolge DELTA 1 DEB in Echtzeit mit AllMySat

Download on the App Store